Location: ?p Thanh B�nh
(16.5833°N, 107.5333°E)
Time: 10:09:35
(UTC+00:00)

Meteor 1-31 Rocket - Pass Details

Date: 29 October 2020
Orbit: 521 x 546 km, 97.6° (Epoch: 23 November)

Event Time Altitude Azimuth Distance (km) Brightness Sun altitude
Rises 21:43:44 0° 1° (N) 2,700 6.3 -15.6°
Reaches altitude 10° 21:45:56 10° 354° (N) 1,805 5.3 -15.1°
Maximum altitude 21:49:36 41° 283° (WNW) 791 3.1 -14.2°
Drops below altitude 10° 21:53:16 10° 212° (SSW) 1,791 5.2 -13.4°
Sets 21:55:26 0° 205° (SSW) 2,676 6.2 -12.8°
